sat.trackr.live / text

‹ back to catalog

STARLINK-11326 [DTC]

NORAD 62010 · 2024-213C

PAYLOAD ACTIVE UNKNOWN

§ Identity

Operator
Country
US
Launch date
2024-11-18
Launch site
AFWTR
Launch vehicle
Mass (kg)
RCS (m²)

Purposes: comms

External: N2YO · Heavens-Above · Gunter

§ Orbital elements

Epoch: 2026-09-21T20:23:56.417856Z

Period
91.73 min
Inclination
53.1567°
Eccentricity
0.0000891
Mean motion
15.69788999 rev/d
Perigee alt
358.9 km
Apogee alt
360.1 km
Semi-major
6,737.6 km
B*
1.7194e-3
RAAN
154.3146°
Arg perigee
121.8571°
Mean anomaly
238.2533°
Rev number
10,572

§ Raw data

STARLINK-11326 [DTC]1 62010U 24213C   26264.84995854  .00213867  00000+0  17194-2 0  99932 62010  53.1567 154.3146 0000891 121.8571 238.2533 15.69788999105727

JSON: /api/v1/satellites/62010 · /tle

For live sub-satellite position, see the globe view (requires WebGL).

§ Visibility from observer

Set your observer location to see the next 7 days of passes ≥ 10°. The values pass through the URL so the page stays shareable.

No JS? Fill the form by hand. The geolocation button needs JavaScript.